FW6343 Weather Reports


time (UTC)temp
C
wind
direction
speed
KPH
gust
KPH
rain 1hr
cm
rain 24hr
cm
rain mn
cm
humidity
%
barometer
mb
20260504050410 9 0 0.0 0.0 0.00 0.03 0.00 70 1018.3
20260504044940 10 0 0.0 0.0 0.00 0.03 0.00 69 1018.1
20260504043354 10 0 0.0 0.0 0.00 0.03 0.00 68 1017.8
20260504041921 10 0 0.0 0.0 0.00 0.03 0.00 66 1018.1
20260504040406 11 0 0.0 0.0 0.00 0.03 0.00 63 1018.2
20260504035008 11 0 0.0 0.0 0.00 0.03 0.03 63 1018.1
20260504034843 11 0 0.0 0.0 0.00 0.03 0.03 63 1018.1
20260504033450 12 0 0.0 0.0 0.00 0.03 0.03 60 1018.0
20260504032006 12 0 0.0 0.0 0.00 0.03 0.03 59 1018.1
20260504031831 12 0 0.0 0.0 0.00 0.03 0.03 59 1018.1
20260504030427 12 0 0.0 0.0 0.00 0.03 0.03 58 1018.1
20260504024835 13 0 0.0 0.0 0.00 0.03 0.03 56 1017.9
20260504023403 13 0 0.0 0.0 0.00 0.03 0.03 55 1017.7
20260504021936 13 0 0.0 0.0 0.00 0.03 0.03 54 1017.6
20260504020515 14 0 0.0 0.0 0.00 0.03 0.03 53 1017.4
20260504020326 14 0 0.0 0.0 0.00 0.03 0.03 53 1017.4
20260504014924 15 0 0.0 0.0 0.00 0.03 0.03 52 1017.3
20260504013445 15 0 0.0 0.0 0.00 0.03 0.03 50 1017.0
20260504013325 15 0 0.0 0.0 0.00 0.03 0.03 50 1017.0
20260504011911 16 0 0.0 0.0 0.00 0.03 0.03 49 1016.9
20260504010428 16 0 0.0 0.0 0.00 0.03 0.03 48 1016.7
20260504005041 17 0 0.0 0.0 0.00 0.03 0.03 46 1016.7
20260504004916 17 0 0.0 0.0 0.00 0.03 0.03 46 1016.7
20260504003434 17 0 0.0 1.6 0.00 0.03 0.03 43 1016.4
20260504001919 18 0 0.0 1.6 0.00 0.03 0.03 41 1016.2
20260504000434 18 0 0.0 4.8 0.00 0.03 0.03 40 1016.3
20260503235007 19 0 0.0 8.0 0.00 0.03 0.03 39 1016.1
20260503233430 20 0 1.6 12.9 0.00 0.03 0.03 40 1016.1
20260503231945 20 219 1.6 11.3 0.00 0.03 0.03 39 1016.1
20260503230411 20 198 3.2 16.1 0.00 0.03 0.03 37 1016.2
20260503224853 21 226 4.8 17.7 0.00 0.03 0.03 35 1016.2
20260503223353 21 0 0.0 16.1 0.00 0.03 0.03 34 1016.3
20260503221857 21 0 1.6 14.5 0.00 0.03 0.03 34 1016.3
20260503220356 21 0 4.8 17.7 0.00 0.03 0.03 31 1016.3
20260503214936 21 217 4.8 16.1 0.00 0.05 0.03 32 1016.5
20260503213353 21 240 4.8 14.5 0.00 0.05 0.03 33 1016.5
20260503212038 21 169 8.0 17.7 0.00 0.05 0.03 32 1016.6
20260503211912 21 169 8.0 17.7 0.00 0.05 0.03 32 1016.6
20260503210454 21 265 4.8 17.7 0.00 0.05 0.03 35 1016.8
20260503205029 21 227 6.4 12.9 0.00 0.05 0.03 33 1017.0
20260503204909 21 227 6.4 12.9 0.00 0.05 0.03 33 1017.0
20260503203508 21 246 1.6 17.7 0.00 0.05 0.03 35 1017.3
20260503202010 20 219 4.8 17.7 0.00 0.05 0.03 35 1017.5
20260503201830 20 219 4.8 17.7 0.00 0.05 0.03 35 1017.5
20260503200338 21 207 4.8 16.1 0.00 0.05 0.03 32 1018.0
20260503194911 20 196 1.6 16.1 0.00 0.05 0.03 37 1018.3
20260503193508 20 211 11.3 17.7 0.00 0.05 0.03 35 1018.6
20260503192039 20 186 3.2 16.1 0.00 0.05 0.03 37 1018.8
20260503191917 20 186 3.2 16.1 0.00 0.05 0.03 37 1018.8
20260503190417 19 187 1.6 14.5 0.00 0.05 0.03 40 1019.1
20260503184914 18 180 6.4 12.9 0.00 0.05 0.03 38 1019.4
20260503183354 19 306 6.4 17.7 0.00 0.05 0.03 40 1019.4
20260503181934 18 188 6.4 14.5 0.00 0.05 0.03 39 1019.6
20260503181830 18 188 6.4 14.5 0.00 0.05 0.03 39 1019.6
20260503180540 18 123 8.0 19.3 0.00 0.05 0.03 38 1019.7
20260503180350 18 123 8.0 19.3 0.00 0.05 0.03 38 1019.7
20260503175029 18 219 3.2 14.5 0.00 0.05 0.03 39 1019.8
20260503173403 17 0 0.0 12.9 0.00 0.05 0.03 44 1019.9
20260503172020 17 0 4.8 16.1 0.00 0.05 0.03 41 1020.2
20260503171827 17 0 4.8 16.1 0.00 0.05 0.03 41 1020.2
20260503170332 17 186 3.2 16.1 0.00 0.05 0.03 42 1020.5
20260503150359 15 0 0.0 8.0 0.00 0.05 0.03 46 1021.3
20260503130423 10 0 0.0 1.6 0.03 0.05 0.03 69 1021.0
20260503110516 3 0 0.0 0.0 0.00 0.03 0.00 85 1020.0
20260503110347 3 0 0.0 0.0 0.00 0.03 0.00 85 1020.0
20260503090340 4 0 0.0 0.0 0.00 0.03 0.00 83 1018.7
20260503080436 5 0 0.0 0.0 0.00 0.03 0.00 82 1018.1
20260503071958 5 0 0.0 0.0 0.00 0.03 0.00 81 1017.7
20260503070540 5 0 0.0 0.0 0.00 0.03 0.00 81 1017.5
20260503070347 5 0 0.0 0.0 0.00 0.03 0.00 81 1017.5